www.pogodaiklimat.ru

Погода и климат >> Архив погоды >> Индия >> Андхра-Прадеш >> Тирупати


ПОГОДА в Тирупати

  • Прогноз погоды в Тирупати
  • Монитор погоды в Тирупати

АРХИВ ПОГОДЫ в Тирупати

Время (UTC), дата Ветер
(напр.,м/с)
 
Видим.   Явления Облачность Т
(С)
Тd
(С)
f
(%)
Тe
(С)
Тes
(С)
Комфортность P
(гПа)
Po
(гПа)
Тmin
(С)
Tmax
(С)
R
(мм)
R24
(мм)
S
(см)
00 15.05 ЮЗ 6 4000 м 4/1 600 м
[Sc Ac trans]
+31.0 +23.2 63 +41 +41 опасность
перегрева
1006.0 994.4
03 15.05 ЮЗ 4 4000 м 4/1 600 м
[Sc Ac trans]
+33.2 +23.4 57 +44 +48 опасность
перегрева
1008.3 996.8 +30.4 +42.6
06 15.05 З 4 4000 м 3/1 600 м
[Sc Ci fib]
+37.8 +21.4 39 +45 +57 опасность
перегрева
1006.9 995.5
09 15.05 В 2 4000 м 6/4 600 м
[Sc Ac trans]
+42.2 +20.6 29 +48 +55 опасность
перегрева
1003.6 992.4
12 15.05 В 3 4000 м 6/4 600 м
[Cb calv Ac trans Ci sp]
+40.6 +20.7 32 +47 +47 опасность
перегрева
1002.7 991.5 +42.6
00 16.05 З 2 4000 м 5/1 600 м
[Sc Ac trans]
+30.4 +24.1 69 +42 +42 опасность
перегрева
1007.4 995.8
03 16.05 З 4 4000 м 6/6 600 м
[Sc diur, vesp]
+32.0 +24.9 66 +45 +47 опасность
перегрева
1009.6 998.0 +29.9 +42.6
06 16.05 З 4 4000 м 6/4 600 м
[Sc Ac trans]
+36.0 +23.7 49 +47 +54 опасность
перегрева
1008.2 996.8
09 16.05 В 2 4000 м 5/3 600 м
[Sc Ci sp]
+40.0 +21.4 34 +47 +57 опасность
перегрева
1005.2 994.0
12 16.05 СВ 1 4000 м 5/3 600 м
[Sc Ci sp]
+39.0 +20.4 34 +45 +46 опасность
перегрева
1004.3 993.0 +41.9
00 17.05 ЮЗ 4 4000 м 3/0 600 м
[Ci sp]
+30.2 +23.6 68 +41 +41 опасность
перегрева
1007.2 995.6
03 17.05 З 6 4000 м 3/0
[Ci sp]
+33.4 +23.6 57 +45 +48 опасность
перегрева
1009.2 997.6 +30.0 +41.9
06 17.05 ЮЗ 3 4000 м 4/1 600 м
[Sc Ci sp]
+38.6 +21.4 37 +46 +60 опасность
перегрева
1007.9 996.6
09 17.05 ЮВ 3 4000 м 6/3 600 м
[Sc Ac trans]
+42.0 +21.8 32 +49 +56 опасность
перегрева
1004.1 992.9
12 17.05 ЮЗ 3 4000 м 8/4 600 м
[Cb calv Ac trans Ci sp]
+38.4 +22.6 40 +47 +47 опасность
перегрева
1003.4 992.1 +42.8
00 18.05 Ю 4 4000 м 3/1 600 м
[Sc Ci fib]
+30.0 +24.3 72 +42 +42 опасность
перегрева
1007.0 994.7
03 18.05 ЮЗ 4 4000 м 3/1 600 м
[Sc Ci sp]
+32.6 +24.6 63 +46 +50 опасность
перегрева
1007.8 996.3 +29.9 +42.8
06 18.05 Ю 2 4000 м 3/1 600 м
[Sc Ci fib]
+38.6 +21.7 38 +46 +66 опасность
перегрева
1006.1 994.8
09 18.05 С 2 4000 м 3/1 600 м
[Sc Ci fib]
+43.6 +19.8 26 +48 +62 опасность
перегрева
1002.9 991.7
12 18.05 Ю 4 4000 м 4/3 600 м
[Sc Ci fib]
+40.4 +19.6 30 +45 +46 опасность
перегрева
1002.5 991.3 +44.5
00 19.05 ЮЗ 5 4000 м 3/1 600 м
[Sc Ci fib]
+30.0 +24.6 73 +43 +43 опасность
перегрева
1006.0 994.3
03 19.05 ЮЗ 6 4000 м 3/1 600 м
[Sc Ci fib]
+32.6 +24.6 63 +46 +48 опасность
перегрева
1007.5 996.0 +29.4 +44.5
06 19.05 ЮЗ 4 4000 м 3/1 600 м
[Sc Ci fib]
+38.8 +21.6 37 +46 +58 опасность
перегрева
1006.0 994.7
09 19.05 Ю 4 4000 м 3/1 600 м
[Sc Ci fib]
+42.6 +19.6 27 +47 +56 опасность
перегрева
1003.2 992.0
12 19.05 Ю 3 4000 м 1/1 600 м
[Sc]
+41.2 +19.1 28 +45 +46 опасность
перегрева
1002.6 991.4 +43.1
00 20.05 З 4 4000 м 3/1 600 м
[Sc Ci fib]
+29.8 +23.1 67 +40 +40 очень
душно
1006.8 995.1
03 20.05 Ю 4 4000 м 3/1 600 м
[Sc Ci fib]
+32.4 +22.4 56 +42 +46 опасность
перегрева
1008.6 997.1 +29.1 +43.1
06 20.05 ЮВ 1 4000 м 3/1 600 м
[Sc Ci sp]
+39.0 +19.6 33 +44 +65 опасность
перегрева
1007.4 996.1
09 20.05 З 3 4000 м 3/1 600 м
[Sc Ci sp]
+42.0 +12.0 17 +41 +53 опасность
перегрева
1004.2 993.0
12 20.05 Ю 4 4000 м 1/1 600 м
[Sc]
+41.2 +13.7 20 +41 +42 опасность
перегрева
1003.4 992.2 +43.5
00 21.05 З 4 4000 м 3/1 600 м
[Sc Ci fib]
+30.0 +21.0 59 +38 +38 очень
душно
1006.7 995.0
03 21.05 Ю 5 4000 м 3/1 600 м
[Sc Ci sp]
+32.4 +21.8 54 +41 +44 опасность
перегрева
1008.2 996.7 +29.3 +43.4
06 21.05 З 4 4000 м 3/1 600 м
[Sc Ci sp]
+38.6 +16.6 28 +41 +53 опасность
перегрева
1007.4 996.1
09 21.05 З 3 4000 м 3/1 600 м
[Sc Ci fib]
+42.4 +13.3 18 +42 +53 опасность
перегрева
1004.6 993.4
12 21.05 Ю 3 4000 м 1/1 600 м
[Sc]
+41.2 +13.7 20 +41 +42 опасность
перегрева
1003.5 992.3 +42.7

 

Местоположение метеостанции Тирупати (Андхра-Прадеш, Индия): широта 13.67 долгота 79.58 высота над уровнем моря 105 м.

В архиве по умолчанию представлена погода в Тирупати за последнюю неделю. Архивные данные за месяц целиком и за предыдущие месяцы, начиная с января 2011 года, Вы можете получить, выбрав интересующий диапазон дат из раскрывающегося списка и нажав кнопку "Ввод!".


*Определитесь, кто Вы:
робот инопланетянин человек

Внимание! Время в таблицах - всемирное. Для получения местного времени необходимо прибавить поправку, которая равна 5.5 ч.

Смотрите также архив погоды в соседних городах и на ближайших метеорологических станциях:

Погода в Терутани (Тамилнад, Индия) (58 км)
Погода в Ченнаи (Тамилнад, Индия) (95 км)
Погода в Веллоре (Тамилнад, Индия) (96 км)
Погода в Неллуру (Андхра-Прадеш, Индия) (97 км)
Погода в Ченнаи аэропорту (Тамилнад, Индия) (99 км)
Погода в Маданапалле (Андхра-Прадеш, Индия) (118 км)
Погода в Кавали (Андхра-Прадеш, Индия) (143 км)
Погода в Чинтамани (Карнатака, Индия) (172 км)
Погода в Тирупатчере (Тамилнад, Индия) (172 км)
Погода в Чикканахолли (Карнатака, Индия) (179 км)

Пояснения к столбцам:

Ветер - указаны скорость ветра в м/с - средняя за 10 мин, порывы в срок и между сроками (в фигурных скобках) и направление, откуда дует ветер: С - северный, СВ - северо-восточный, В - восточный, ЮВ - юго-восточный, Ю - южный, ЮЗ - юго-западный, З - западный, СЗ - северо-западный.
Видимость - горизонтальная дальность видимости в метрах или километрах. При видимости от 1 до 10 км при отсутствии осадков обычно наблюдается дымка, при ухудшении видимости до 1 км и менее - туман. В сухую погоду видимость может ухудшаться дымом, пылью или мглою.
Явления - указаны атмосферные явления, наблюдавшиеся в срок или в последний час перед сроком; фигурными скобками обозначены явления, наблюдавшиеся между сроками (за 1-3 часа до срока); квадратными скобками обозначены град или гололедные отложения с указанием их диаметра в мм.
Облачность - указаны через наклонную черту общая и нижняя облачность в баллах и высота нижней границы облаков в метрах; квадратными скобками обозначены формы облаков: Ci - перистые, Cs - перисто-слоистые, Cc - перисто-кучевые, Ac - высококучевые, As - высокослоистые, Sc - слоисто-кучевые, Ns - слоисто-дождевые, Cu - кучевые, Cb - кучево-дождевые. Подробнее классификацию облаков см. в Атласе облаков (PDF).
T - Температура воздуха - температура, измеренная на высоте 2 м над землей.
Td - Температура точки росы - температура, при понижении до которой содержащийся в воздухе водяной пар достигнет насыщения.
f - Относительная влажность воздуха - влажноcть воздуха, измеренная на высоте 2 м над землей.
Te - Эффективная температура - температура, которую ощущает одетый по сезону человек в тени. Характеристика душности погоды. При расчете учитывается влияние влажности воздуха и скорости ветра на теплоощущения человека.
Tes - Эффективная температура на солнце - температура, которую ощущает человек, с поправкой на солнечный нагрев. Характеристика знойности погоды. Зависит от высоты солнца над горизонтом, облачности и скорости ветра. Ночью, в пасмурную погоду, а также при ветре 12 м/с и более поправка равна нулю.
P - Атмосферное давление - приведенное к уровню моря атмосферное давление.
Po - Атмосферное давление - измеренное на уровне метеостанции атмосферное давление.
Tmin - Минимальная температура - минимум температуры воздуха на высоте 2 м над землей.
Tmax - Максимальная температура - максимум температуры воздуха на высоте 2 м над землей.
R - Количество осадков - Количество выпавших осадков за период времени, мм. При наведении курсора мыши на число - период времени, за который выпало указанное количество осадков.
R24 - Количество осадков - Количество выпавших осадков за 24 часа, мм.
S - Снежный покров - Высота снежного покрова, см. При наведении курсора мыши на число - состояние снежного покрова и степень покрытия местности в баллах.